ATLAS 5 CENTAUR DEB, 43951

Orbit data source: Space-Track

ATLAS 5 CENTAUR DEB, 43951 is space debris in HEO originally from a launch on Wed, 17 Sep 2014 UTC launched from the Air Force Eastern Test Range (AFETR). Debris objects in space refer to the collection of defunct objects orbiting the Earth. Examples of debris include non-operational satellites, rocket bodies, and fragments generated from explosions, collisions, or faulty payload assembly.

Loading next visibility...
Identifier
43951, 2014-055E
Orbit
HEO
Country
Flag of USUS
Related business
Flag of USUnited Launch Alliance/Lockheed Martin (US)
Manufacturer
Unknown
Mission
Spacecraft
Bus & Motor
Unknown
Mass
Unknown
Launch date (UTC)
2014-09-17 (11 years ago)
Launch vehicle
Unknown
Launch site
Air Force Eastern Test Range (AFETR)
Object type
Payload
Rocket body
Debris
Shape & HBR
Unknown shape, 1.1 m
Radar Cross Section
Small (<0.1 m²)

Expand to show TLE details & history
Last TLE update: 1 day ago

TLE from 1 day ago
0 ATLAS 5 CENTAUR DEB
1 43951U 14055E   26034.72078445 -.00000118  00000-0  00000-0 0  9990
2 43951  20.4796 136.8749 4890648 179.3131 181.7352  1.89455327 51360
Epoch: 2026-02-03T17:17Z
TLE epoch observation values (Epoch: 2026-02-03T17:17:55.776Z)
Latitude
0.00002°
Longitude
103.48357°
Altitude
34,725.837 km
Speed
2.224 km/s
True Right ascension
09h 07m 27s
True Declination
0° 00' 00"
Sunlit
Object was in daylight at epoch
Visualization orbit readout
Latitude
Unknown
Longitude
Unknown
Altitude
Unknown
Speed
Unknown
Apparent Right ascension
Unknown
Apparent Declination
Unknown
Sunlit
N/A
Visualization observer readout
Local Sidereal Time
20:02:59
Azimuth
Unknown
Elevation
Unknown
Doppler factor
Unknown
Orbital elements
Apogee altitude
34,706.117 km
Perigee altitude
7,718.893 km
Semi-major axis
27,590.642 km
Eccentricity
0.48906
Inclination
20.4796°
RAAN
136.8749°
Arg. of periapsis
179.3131°
True anomaly
180.68262°
Mean anomaly
181.7352°
Eccentric anomaly
181.16532°
Mean motion
0.47359 °/min
Orbital period
760.15 mins
BSTAR
0
Loading maneuver chart data...
Computing Atmospheric mass density...

Documentation

Showing up to 5 results
|